SPACEMOBILE-SSR05 DEB, 62373

Orbit data source: Space-Track

SPACEMOBILE-SSR05 DEB, 62373 is space debris in LEO originally from a launch on Thu, 12 Sep 2024 UTC launched from the Air Force Eastern Test Range (AFETR). Debris objects in space refer to the collection of defunct objects orbiting the Earth. Examples of debris include non-operational satellites, rocket bodies, and fragments generated from explosions, collisions, or faulty payload assembly.

Loading next visibility...
Identifier
62373, 2024-163K
Orbit
LEO
Country
Flag of USUS
Related business
Manufacturer
AST & Science
Mission
Spacecraft
Bus & Motor
BW3 LVA, Unknown motor
Mass
150 kg wet, 150 kg dry
Launch date (UTC)
2024-09-12 (2 years ago)
Launch vehicle
Unknown
Launch site
Air Force Eastern Test Range (AFETR)
Object type
Payload
Rocket body
Debris
Shape & HBR
Cyl, 3.8 m
Radar Cross Section
1.963 m², Large (>1 m²)

Expand to show TLE details & history
Last TLE update: 9 hours ago

TLE from 9 hours ago
0 SPACEMOBILE-SSR05 DEB
1 62373U 24163K   26095.19286353  .00020767  00000-0  66177-3 0  9998
2 62373  52.9757 266.0714 0006723 275.5721  84.4511 15.32510639 86924
Epoch: 2026-04-05T04:37Z
TLE epoch observation values (Epoch: 2026-04-05T04:37:43.408Z)
Latitude
-0.00009°
Longitude
3.13866°
Altitude
468.763 km
Speed
7.633 km/s
True Right ascension
17h 44m 17s
True Declination
0° 00' 00"
Sunlit
Object was in daylight at epoch
Visualization orbit readout
Latitude
Unknown
Longitude
Unknown
Altitude
Unknown
Speed
Unknown
Apparent Right ascension
Unknown
Apparent Declination
Unknown
Sunlit
N/A
Visualization observer readout
Local Sidereal Time
19:25:27
Azimuth
Unknown
Elevation
Unknown
Doppler factor
Unknown
Orbital elements
Apogee altitude
473.214 km
Perigee altitude
464.008 km
Semi-major axis
6,846.748 km
Eccentricity
0.00067
Inclination
52.9757°
RAAN
266.0714°
Arg. of periapsis
275.5721°
True anomaly
84.52779°
Mean anomaly
84.4511°
Eccentric anomaly
84.48944°
Mean motion
3.83104 °/min
Orbital period
93.97 mins
BSTAR
0.00066177
Loading maneuver chart data...
Computing Atmospheric mass density...
Loading historical data...
Loading historical data...
Loading historical data...
Loading historical data...
Loading historical data...
Loading historical data...
Loading historical data...

Documentation

Showing up to 5 results
|